Weather History for KIML - December, 2013

Change the Weather History Date:

Thursday, December 5, 2013

  Actual Average Record
Temperature  
Mean Temperature 7 °F 30 °F  
Max Temperature 16 °F 43 °F 72 °F (1939)
Min Temperature -2 °F 17 °F -16 °F (1909)
Degree Days  
Heating Degree Days 58 35  
Month to date heating degree days 181 172  
Cooling Degree Days 0 0  
Month to date cooling degree days 0 0  
Year to date cooling degree days 1166 963  
Moisture  
Dew Point -6 °F    
Average Humidity 55    
Maximum Humidity 69    
Minimum Humidity 40    
Precipitation  
Precipitation 0.00 in 0.02 in 2.10 in (1913)
Sea Level Pressure  
Sea Level Pressure 30.39 in    
Wind  
Wind Speed 8 mph (North)    
Max Wind Speed 21 mph    
Max Gust Speed 25 mph    
Visibility 10 miles    
Events      
T = Trace of Precipitation, MM = Missing Value Source: NWS Daily Summary

Daily Weather History Graph

Daily Weather History Graph

Search for Another Location

Airport or City:

Trip Planner

Search our weather history database for the weather conditions in past years. The results will help you decide how hot, cold, wet, or windy it might be!

Date:

Astronomy

Dec. 05, 2013 Rise Set
Actual Time 6:54 AM MST 4:19 PM MST
Civil Twilight 6:24 AM MST 4:50 PM MST
Nautical Twilight 5:50 AM MST 5:24 PM MST
Astronomical Twilight 5:17 AM MST 5:57 PM MST
Moon 9:16 AM MST (12/5) 7:43 PM MST (12/5)
Length of Visible Light 10h 25m
Length of Day
9h 24m
Waxing Crescent, 11% of the Moon is Illuminated
Dec 5
Waxing Crescent
Dec 9
First Quarter
Dec 17
Full
Dec 25
Last Quarter
Jan 1
New

Hourly Weather History & Observations

Time (MST) Temp. Windchill Dew Point Humidity Pressure Visibility Wind Dir Wind Speed Gust Speed Precip Events Conditions
12:53 AM 3.0 °F -16.7 °F -8.0 °F 60% 30.33 in 10.0 mi NW 17.3 mph 24.2 mph N/A   Clear
1:53 AM 1.9 °F -16.9 °F -8.0 °F 63% 30.33 in 10.0 mi NW 15.0 mph - N/A   Clear
2:53 AM 1.9 °F -16.2 °F -8.0 °F 63% 30.34 in 10.0 mi NW 13.8 mph - N/A   Clear
3:53 AM 1.0 °F -14.9 °F -8.0 °F 66% 30.35 in 10.0 mi NW 10.4 mph - N/A   Clear
4:53 AM 1.0 °F -14.0 °F -9.0 °F 63% 30.36 in 10.0 mi NW 9.2 mph - N/A   Clear
5:53 AM -0.9 °F -15.3 °F -9.0 °F 69% 30.35 in 10.0 mi NNW 8.1 mph - N/A   Clear
6:53 AM -0.0 °F -13.0 °F -9.0 °F 66% 30.38 in 10.0 mi NW 6.9 mph - N/A   Clear
7:53 AM -0.9 °F -8.9 °F -9.0 °F 69% 30.43 in 10.0 mi West 3.5 mph - N/A   Clear
8:53 AM 3.0 °F -11.5 °F -8.0 °F 60% 30.43 in 10.0 mi NNW 9.2 mph - N/A   Clear
9:53 AM 8.1 °F -4.3 °F -6.0 °F 53% 30.43 in 10.0 mi North 8.1 mph - N/A   Clear
10:53 AM 10.0 °F -0.9 °F -6.0 °F 48% 30.41 in 10.0 mi North 6.9 mph - N/A   Clear
11:53 AM 12.9 °F 1.6 °F -5.1 °F 45% 30.36 in 10.0 mi NNW 8.1 mph - N/A   Clear
12:53 PM 12.9 °F 6.9 °F -5.1 °F 45% 30.34 in 10.0 mi North 3.5 mph - N/A   Clear
1:53 PM 16.0 °F 5.3 °F -4.0 °F 41% 30.32 in 10.0 mi NE 8.1 mph - N/A   Clear
2:53 PM 15.1 °F 7.7 °F -5.1 °F 41% 30.33 in 10.0 mi NE 4.6 mph - N/A   Mostly Cloudy
3:53 PM 14.0 °F 3.9 °F -5.1 °F 43% 30.35 in 10.0 mi East 6.9 mph - N/A   Overcast
4:53 PM 12.9 °F 5.2 °F -5.1 °F 45% 30.38 in 10.0 mi East 4.6 mph - N/A   Overcast
5:53 PM 12.9 °F 5.2 °F -4.0 °F 47% 30.38 in 10.0 mi NE 4.6 mph - N/A   Overcast
6:53 PM 12.9 °F 5.2 °F -4.0 °F 47% 30.40 in 10.0 mi East 4.6 mph - N/A   Overcast
7:53 PM 10.0 °F 0.4 °F -4.0 °F 53% 30.43 in 10.0 mi North 5.8 mph - N/A   Overcast
8:53 PM 9.0 °F -7.3 °F -5.1 °F 53% 30.45 in 10.0 mi NNE 13.8 mph - N/A   Overcast
9:53 PM 8.1 °F -5.3 °F -4.0 °F 58% 30.46 in 10.0 mi NE 9.2 mph - N/A   Overcast
10:53 PM 6.1 °F -4.3 °F -5.1 °F 60% 30.47 in 10.0 mi ENE 5.8 mph - N/A   Overcast
11:53 PM 5.0 °F -4.1 °F -5.1 °F 63% 30.48 in 10.0 mi NE 4.6 mph - N/A   Overcast